Flag for USA

Past Weather in Yellowstone National Park, Wyoming, USA — May 2017

Now
77 °F

Sunny.


Feels Like: 78 °F
Forecast: 85 / 48 °F
Wind: 3 mph from North

Location: West Yellowstone Airport

Current Time: Jul 23, 2019 at 2:12:19 pm

Latest Report: Jul 23, 2019 at 1:25 pm


Visibility: 10 mi

Pressure: 30.33 "Hg

Humidity: 39%

Dew Point: 50 °F

Location of Yellowstone National ParkLocation

May 2017 Weather in Yellowstone National Park — Graph

°F

High & Low Weather Summary for May 2017

 TemperatureHumidityPressure
High77 °F (May 31, 3:35 pm)100% (May 1, 12:10 am)30.36 "Hg (May 1, 12:10 am)
Low19 °F (May 3, 6:10 am)13% (May 24, 5:35 pm)29.51 "Hg (May 24, 3:35 pm)
Average43 °F64%30.04 "Hg
* Reported May 1 12:10 am — May 31 11:35 pm, Yellowstone National Park. Weather by CustomWeather, © 2019

Note: Actual official high and low records may vary slightly from our data, if they occured in-between our weather recording intervals... More about our weather records

Advertising

Yellowstone National Park Weather History for May 1, 2017

Scroll right to see more
 ConditionsComfort  
Time TempWeatherWind HumidityBarometerVisibility
12:10 am
Mon, May 1
30 °FPassing clouds.No wind100%30.03 "Hg10 mi
12:50 am36 °FOvercast.6 mph75%30.03 "Hg10 mi
1:05 am36 °FMostly cloudy.5 mph75%30.03 "Hg10 mi
1:30 am32 °FOvercast.No wind93%30.04 "Hg10 mi
2:30 am30 °FOvercast.No wind93%30.05 "Hg10 mi
2:50 am28 °FPassing clouds.No wind100%30.04 "Hg10 mi
3:30 am28 °FClear.No wind100%30.04 "Hg10 mi
3:50 am27 °FPassing clouds.3 mph100%30.04 "Hg10 mi
4:10 am27 °FClear.No wind100%30.05 "Hg10 mi
4:30 am28 °FClear.No wind93%30.06 "Hg10 mi
4:50 am27 °FPassing clouds.No wind100%30.07 "Hg10 mi
5:30 am27 °FOvercast.No wind100%30.06 "Hg10 mi
5:50 am27 °FMostly cloudy.No wind100%30.06 "Hg10 mi
6:50 am28 °FOvercast.No wind93%30.08 "Hg10 mi
7:10 am32 °FMore clouds than sun.No wind80%30.09 "Hg10 mi
7:30 am32 °FMore clouds than sun.No wind80%30.10 "Hg10 mi
8:30 am37 °FScattered clouds.5 mph52%30.10 "Hg10 mi
8:50 am37 °FSunny.7 mph52%30.09 "Hg10 mi
9:10 am39 °FPassing clouds.5 mph45%30.09 "Hg10 mi
9:30 am39 °FPassing clouds.6 mph42%30.10 "Hg10 mi
9:50 am39 °FSunny.6 mph39%30.10 "Hg10 mi
10:30 am39 °FPassing clouds.7 mph39%30.09 "Hg10 mi
10:50 am41 °FPassing clouds.6 mph36%30.10 "Hg10 mi
11:10 am41 °FPassing clouds.9 mph36%30.09 "Hg10 mi
11:30 am41 °FSunny.13 mph36%30.09 "Hg10 mi
11:50 am41 °FPassing clouds.8 mph36%30.09 "Hg10 mi
12:30 pm43 °FScattered clouds.6 mph31%30.08 "Hg10 mi
12:50 pm45 °FScattered clouds.8 mph31%30.08 "Hg10 mi
1:10 pm45 °FPassing clouds.8 mph31%30.07 "Hg10 mi
1:30 pm46 °FScattered clouds.12 mph32%30.07 "Hg10 mi
1:50 pm45 °FPassing clouds.7 mph31%30.07 "Hg10 mi
2:10 pm45 °FPartly sunny.12 mph34%30.07 "Hg10 mi
2:30 pm46 °FPartly sunny.9 mph32%30.07 "Hg10 mi
2:50 pm46 °FScattered clouds.12 mph32%30.06 "Hg10 mi
3:30 pm48 °FScattered clouds.20 mph27%30.04 "Hg10 mi
3:50 pm48 °FSunny.16 mph27%30.04 "Hg10 mi
4:10 pm48 °FSunny.17 mph27%30.03 "Hg10 mi
4:30 pm48 °FScattered clouds.7 mph29%30.03 "Hg10 mi
4:50 pm48 °FPartly sunny.17 mph29%30.03 "Hg10 mi
5:10 pm46 °FBroken clouds.21 mph46%30.02 "Hg10 mi
5:30 pm46 °FBroken clouds.22 mph46%30.02 "Hg10 mi
5:50 pm46 °FScattered clouds.14 mph46%30.03 "Hg10 mi
6:10 pm45 °FMore clouds than sun.16 mph49%30.02 "Hg10 mi
6:30 pm45 °FPartly sunny.17 mph53%30.02 "Hg10 mi
6:50 pm41 °FBroken clouds.21 mph66%30.03 "Hg10 mi
7:30 pm37 °FPassing clouds.8 mph93%30.03 "Hg7 mi
8:10 pm37 °FFog.3 mph93%30.03 "Hg6 mi
8:30 pm37 °FLight rain. Clear.5 mph87%30.03 "Hg4 mi
8:50 pm37 °FFog.6 mph87%30.03 "Hg6 mi
9:10 pm37 °FLight rain. Passing clouds.6 mph81%30.03 "Hg7 mi
9:30 pm37 °FLight rain. Passing clouds.5 mph81%30.03 "Hg5 mi
9:50 pm36 °FMostly cloudy.No wind93%30.02 "Hg10 mi
10:10 pm37 °FPartly cloudy.No wind87%30.02 "Hg9 mi
10:30 pm37 °FMostly cloudy.No wind87%30.02 "Hg10 mi
10:50 pm37 °FOvercast.3 mph81%30.01 "Hg10 mi
11:10 pm37 °FMostly cloudy.5 mph75%30.00 "Hg10 mi
11:30 pm37 °FOvercast.No wind81%30.00 "Hg10 mi
11:50 pm37 °FOvercast.5 mph70%29.99 "Hg10 mi
Weather by CustomWeather, © 2019

See weather overview